Powrót do katalogu

SL-16 DEB

AktywnyLEO
NORAD 20627·DEBRIS·🇷🇺 Russia

Wystrzelony May 22, 1990 z Baikonur Cosmodrome

Loading…

Następne Przeloty (najbliższe 24 godziny)

TLE

ŚwieżeSource: Space-Track

Epoka: Sep 14, 2026, 09:52 UTC

1 20627U 90046D   26257.41135846  .00000057  00000-0  94801-4 0  9998
2 20627  70.9737  54.7770 0211622 165.2979 222.8670 13.71018064815894

Śledź SL-16 DEB w czasie rzeczywistym z AllMySat

Download on the App Store